Regional Weather Roundup
Issued by NWS

Home | Current Version | Previous Version | Graphics & Text | Print | Product List | Glossary On
Versions: 1 2 3 4 5 6 7 8 9 10 11 12 13 14 15 16 17 18 19 20 21 22 23 24 25 26 27 28 29 30 31 32 33 34 35 36 37 38 39 40 41 42 43 44 45 46 47 48 49 50
000
ASUS43 KMKX 231521
RWRWI

WISCONSIN REGIONAL WEATHER ROUNDUP
NATIONAL WEATHER SERVICE MILWAUKEE/SULLIVAN WI
1000 AM CDT THU OCT 23 2014

NOTE: "FAIR" INDICATES FEW OR NO CLOUDS BELOW 12,000 FEET WITH NO
SIGNIFICANT WEATHER AND/OR OBSTRUCTIONS TO VISIBILITY.

WIZ001-002-006>008-014>016-023>028-231600-
NORTHWEST WISCONSIN

CITY           SKY/WX    TMP DP  RH WIND       PRES   REMARKS
SUPERIOR ARPT  CLOUDY    50  49  97 W5        29.98S FOG
ASHLAND        CLOUDY    48  47  96 S6        30.01S
HAYWARD        CLOUDY    48  46  93 S8        30.01S FOG
SIREN          FOG       49  49  99 S5        30.00S VSB 1
CUMBERLAND     FOG       46  45  93 S6        30.01S VSB 3/4
RICE LAKE      CLOUDY    47  46  95 SE6       30.03S FOG
CHETEK         DRIZZLE   47  47  99 SE3       30.03R
LADYSMITH      CLOUDY    46  44  95 S6        30.05S FOG
EAU CLAIRE     LGT RAIN  48  46  93 S7        30.04R
MENOMONIE      NOT AVBL
NEW RICHMOND   CLOUDY    50  50 100 S5        30.01F FOG
OSCEOLA        CLOUDY    51  51 100 S5        30.03S FOG
$$

WIZ003>005-009-010-017-018-231600-
NORTH CENTRAL WISCONSIN

CITY           SKY/WX    TMP DP  RH WIND       PRES   REMARKS
MANITOWISH WTR DRIZZLE   42  42  99 S7        30.04R
ARBOR VITAE    CLOUDY    44  41  88 S9        30.05R
WOODRUFF       CLOUDY    44  41  88 S9        30.05R
RHINELANDER    LGT RAIN  43  40  89 S7        30.06S
EAGLE RIVER    CLOUDY    43  41  92 S6        30.05S
LAND O LAKES   CLOUDY    45  40  84 SW8       30.06S
PHILLIPS       LGT RAIN  43  42  97 S5        30.03S
TOMAHAWK       RAIN      42  40  93 CALM      30.06S
MEDFORD        RAIN      41  40  96 SE7       30.05S
MERRILL        RAIN      43  41  94 S5        30.07S
$$

WIZ029-030-035-036-043>047-231600-
CENTRAL WISCONSIN

CITY           SKY/WX    TMP DP  RH WIND       PRES   REMARKS
WAUSAU         LGT RAIN  43  40  89 SE7       30.07S
MOSINEE        DRIZZLE   43  41  93 SE9       30.09R
MARSHFIELD     LGT RAIN  44  41  89 S8        30.07R
STEVENS POINT  LGT RAIN  42  38  87 S6        30.10S
WAUPACA        CLOUDY    43  40  87 SE6       30.13S FOG
WAUTOMA        CLOUDY    44  39  82 S3        30.12S
WISC RAPIDS    LGT RAIN  45  41  86 S3        30.10S
CAMP DOUGLAS   LGT RAIN  46  46 100 VRB3      30.08S
$$

WIZ011>013-019>022-031-037>040-048>050-231600-
NORTHEAST WISCONSIN

CITY           SKY/WX    TMP DP  RH WIND       PRES   REMARKS
ANTIGO         CLOUDY    39  38  95 S9        30.08F FOG     WCI  33
SHAWANO        CLOUDY    44  39  83 S3        30.13F
OCONTO         PTSUNNY   50  40  69 S8        30.14F
STURGEON BAY   MOSUNNY   50  43  76 S12       30.15F
GREEN BAY      CLOUDY    47  39  74 S9        30.15F
MANITOWOC      MOSUNNY   50  41  71 S13       30.16F
APPLETON       PTSUNNY   45  36  70 S9        30.14F
CLINTONVILLE   CLOUDY    43  37  81 S8        30.12F
OSHKOSH        CLOUDY    48  40  73 S15       30.14S
$$

WIZ032>034-041-042-053>061-231600-
SOUTHWEST WISCONSIN

CITY           SKY/WX    TMP DP  RH WIND       PRES   REMARKS
LA CROSSE      LGT RAIN  49  46  90 S10       30.06S FOG
SPARTA         RAIN      46  43  88 SW3       30.09R
VIROQUA        CLOUDY    44  44 100 S5        30.07S
BOSCOBEL       LGT RAIN  47  43  86 CALM      30.11S FOG
PRAIRIE DU CHI LGT RAIN  46  44  91 E3        30.09S
PLATTEVILLE    CLOUDY    47  41  78 S6        30.12S
$$

WIZ056-057-062-063-064-067-068-231600-
SOUTH CENTRAL WISCONSIN

CITY           SKY/WX    TMP DP  RH WIND       PRES   REMARKS
REEDSBURG      LGT RAIN  46  38  75 S5        30.10S
BARABOO/DELLS  RAIN      46  37  71 S9        30.10S
LONE ROCK      RAIN      48  41  76 E5        30.13R
MINERAL POINT  CLOUDY    45  37  76 SE12      30.11R
MADISON        CLOUDY    48  39  71 S9        30.15S
MIDDLETON      CLOUDY    48  37  65 S9        30.13F
WATERTOWN      MOSUNNY   46  40  80 SE7       30.15F
MONROE         CLOUDY    46  39  76 S15       30.14F
JANESVILLE     SUNNY     50  39  66 S10       30.16F
$$

WIZ051-052-058>065-066-070>072-231600-
SOUTHEAST WISCONSIN

CITY           SKY/WX    TMP DP  RH WIND       PRES   REMARKS
MILWAUKEE      PTSUNNY   50  40  68 S13       30.19F
WAUKESHA       SUNNY     43  37  81 SW7       30.19S
MILWAUKEE/TIMM SUNNY     46  37  71 S9        30.19F
RACINE         MOSUNNY   49  40  71 S7        30.21F
BURLINGTON     MOSUNNY   45  45  98 SW8       30.18S
KENOSHA        MOSUNNY   50  43  77 S6        30.20F
FOND DU LAC    CLOUDY    47  39  74 S10       30.15S
SHEBOYGAN      PTSUNNY   46  39  76 S7        30.16F
WEST BEND      CLOUDY    45  37  76 SW6       30.17S
JUNEAU         PTSUNNY   46  39  75 SE10      30.16F
$$

LSZ147-162-231600-
LAKE SUPERIOR

STATION/POSITION TIME  TEMP    WIND        PRES    WAVE
                       AIR SEA DIR/SP/G            HT/PER
                 (UTC) (F)     (DEG/KT/KT) (MB)    (FT/S)
W MID LAKE BUOY  1450   48 46  200/ 12/ 14 1016.0F   2/ 4
DEVILS ISLAND    1500   48     180/  7/  9 1016.1S
PORT WING        1400   49     190/  5/  6 1015.2S
SAXON HARBOR     1440   51     190/  5/ 12 1015.9R
$$

LMZ867-665-643>646-231600-
LAKE MICHIGAN

STATION/POSITION TIME  TEMP    WIND        PRES    WAVE
                       AIR SEA DIR/SP/G            HT/PER
                 (UTC) (F)     (DEG/KT/KT) (MB)    (FT/S)
CHAMBERS ISLAND  1400   50     180/  6/ 12 1021.3S
N MID LAKE BUOY  1450   48 51  190/ 16/ 19 1021.9F   3/ 5
NORTHPORT PIER   1400   50     170/  3/ 11 1021.3F
SISTER BAY       1243          180/  9/ 11   N/A
ALGOMA LAKESHORE 1326          240/ 12/ 13   N/A
KEWAUNEE LAKESHO 1500   48     180/ 13/ 15 1020.5F
SHEBOYGAN LAKESH 1500   48 50  180/ 15/ 16 1022.1F
PORT WASHINGTON  1400   51     190/  6/  9 1023.0F
ATWATER BUOY     1500   49     190/ 12/ 14 1023.0F
MILWAUKEE LAKESH 1500   49     210/  8/ 10   N/A
S MID LAKE BUOY  1450   51 54  210/ 12/ 14 1023.4F   2/ 4
KENOSHA   LAKESH 1500   51     190/  8/ 11 1022.4F
$$

TC  - TEMPERATURE IN CELSIUS
VSB - VISIBILITY IN STATUTE MILES
WCI - WIND CHILL INDEX
HX  - HEAT INDEX




USA.gov is the U.S. government's official web portal to all federal, state and local government web resources and services.